Wind_Speed
54 50 47 48 47 45 45 45 44 42 39 39 39 39 39 38 38 37 36 36 36 37 37 38 39 39 39 40 40 41 42 42 43 42 41 41 39 39 40 41 43 45
55 50 49 50 48 46 46 45 44 43 41 40 40 40 39 38 38 37 37 37 38 38 39 39 39 39 39 40 40 41 41 42 42 42 41 39 38 40 41 42 44 45
56 51 51 51 48 46 46 46 46 45 43 42 41 40 40 39 39 39 39 39 40 40 40 39 39 40 40 40 39 40 41 42 42 41 40 39 41 42 41 42 44 45
56 52 51 51 49 48 48 47 47 46 45 44 43 42 41 41 40 40 40 40 41 41 40 40 40 40 40 39 39 39 40 40 41 41 41 42 43 41 40 42 44 43
56 52 52 52 50 50 49 49 48 47 46 46 45 44 43 43 42 42 42 42 42 42 42 41 40 40 41 41 40 40 39 40 42 43 43 44 42 39 41 43 43 42
55 53 53 53 52 51 51 50 49 48 47 46 46 45 45 44 44 43 43 43 43 43 42 42 42 43 44 43 42 41 40 41 44 44 43 41 40 41 44 43 42 42
55 54 55 55 53 53 52 51 50 49 48 47 46 46 45 45 45 45 45 44 44 44 43 44 45 45 44 43 43 42 41 42 43 41 40 40 42 45 45 43 42 42
56 55 56 56 54 53 52 52 52 50 49 47 46 46 46 46 46 47 47 46 46 46 46 47 47 46 45 45 44 43 42 42 42 41 41 44 46 47 45 43 42 41
57 56 57 56 55 54 54 54 54 53 51 49 48 48 48 48 49 49 50 49 50 49 49 49 49 49 48 46 45 44 43 43 44 45 46 48 48 45 44 43 41 41
59 58 59 58 58 57 56 56 56 55 53 52 52 52 52 52 52 53 53 53 53 52 52 51 50 49 47 44 44 45 44 44 47 49 49 47 44 42 43 42 41 41
58 60 61 61 61 60 59 59 58 57 56 54 55 55 55 55 55 55 55 55 55 55 54 53 52 50 46 43 44 45 44 44 45 46 44 42 40 41 43 43 41 42
55 58 60 61 61 60 59 59 58 57 55 54 55 55 55 55 55 55 55 55 55 55 55 54 53 51 47 44 43 42 40 39 40 40 39 40 41 43 45 44 43 42
50 54 56 57 57 56 56 55 55 53 52 52 53 53 53 52 52 52 52 53 53 53 53 53 53 52 49 47 46 45 43 42 41 40 41 43 44 45 46 45 43 41
47 50 51 52 52 51 51 50 49 48 47 48 49 49 48 47 48 48 48 48 49 49 49 49 49 50 50 49 50 52 53 52 50 49 48 47 47 47 46 44 42 40
45 46 47 47 47 47 46 46 45 44 43 44 45 44 44 44 44 44 44 44 44 44 44 44 44 46 47 48 49 51 54 55 56 55 53 50 47 46 45 42 40 38
42 43 44 45 44 43 43 43 42 40 40 41 42 41 41 41 41 41 40 40 41 41 41 41 41 42 43 45 46 48 50 52 53 53 52 50 47 45 43 39 37 36
42 43 44 44 43 42 42 41 40 39 39 40 41 40 39 40 39 39 39 39 39 39 39 39 40 40 41 42 43 44 46 47 47 48 47 46 44 41 38 36 34 34
43 44 44 43 43 42 41 40 39 38 39 40 39 39 39 38 38 39 39 38 38 38 38 38 38 38 39 40 40 41 42 42 42 42 41 40 38 36 34 33 32 32
44 45 44 43 43 42 40 38 38 37 38 39 39 38 38 38 38 38 38 37 36 36 36 37 37 37 37 38 38 38 38 37 37 35 35 34 34 32 31 31 31 33
45 45 43 42 41 39 36 36 36 36 37 38 38 38 37 37 37 37 36 35 34 35 35 36 36 36 36 36 35 35 33 32 31 31 31 31 30 30 29 29 31 35
44 42 40 39 37 34 33 34 35 35 37 38 37 37 36 35 35 35 33 33 33 34 34 35 34 34 33 33 32 30 29 28 28 29 29 28 28 28 29 31 34 37
40 38 37 36 32 30 31 33 34 36 37 36 36 35 34 33 34 33 31 31 32 33 33 33 32 31 30 29 28 27 27 27 27 27 26 26 28 29 30 32 36 38
38 36 35 32 28 28 31 33 35 36 36 35 34 33 32 32 32 31 30 31 31 31 31 30 30 29 28 27 26 26 26 26 25 24 24 26 27 29 31 34 37 38
37 35 32 29 27 29 32 34 35 34 34 34 33 31 30 30 30 30 30 31 30 29 28 28 29 28 27 25 25 26 26 24 23 22 24 26 28 29 32 35 38 39
36 33 29 27 27 30 32 34 33 33 33 32 31 29 29 29 30 30 30 30 29 28 27 27 28 27 26 25 26 26 25 24 23 24 27 29 29 31 34 36 38 39
33 29 26 26 27 29 32 32 31 31 31 30 29 28 28 29 30 30 30 29 29 28 27 28 27 27 26 26 26 26 26 25 25 28 31 31 31 33 35 37 38 39
Wind_Direction
245 246 247 249 250 251 253 254 256 256 257 258 259 260 260 262 263 264 265 267 269 272 275 278 280 283 285 287 289 291 292 293 294 295 296 297 297 299 301 304 306 309
246 246 247 248 249 250 252 254 256 257 257 257 258 258 259 261 262 263 265 267 270 273 276 279 280 282 284 286 289 291 292 293 294 295 296 297 298 301 303 305 308 311
245 245 246 248 249 250 252 254 256 256 256 257 257 258 259 260 262 263 266 268 271 274 277 278 279 280 283 286 289 290 292 293 294 295 297 298 300 302 303 306 310 312
244 245 247 248 249 250 251 253 255 256 257 257 258 258 259 261 262 264 267 270 272 274 275 276 278 280 283 285 287 289 290 291 292 294 295 297 299 300 303 308 310 312
244 245 247 248 249 249 251 252 254 256 257 258 258 259 260 261 263 265 267 269 271 272 274 275 277 279 281 283 285 286 288 288 289 292 294 295 296 299 305 308 309 311
244 245 247 247 248 249 251 252 254 255 256 258 259 260 261 262 263 265 267 269 270 272 274 276 277 279 280 282 284 285 286 287 288 290 291 292 294 300 305 307 309 311
243 244 246 247 248 249 251 252 253 254 255 257 259 260 262 263 264 266 267 269 271 272 274 276 278 279 279 281 283 284 285 286 287 286 287 289 294 300 303 305 307 310
242 243 245 247 248 249 251 252 253 254 255 256 258 260 261 263 265 267 268 269 270 272 274 276 277 278 278 280 282 283 284 284 282 281 284 289 293 298 301 303 306 308
241 242 245 247 248 249 250 252 253 254 255 256 257 259 261 263 265 267 268 270 271 273 274 275 276 278 279 281 283 282 280 279 278 280 284 289 292 295 299 302 304 306
239 241 244 246 247 248 250 251 253 254 255 256 258 259 261 263 265 266 268 270 271 272 273 274 275 276 278 281 284 282 279 277 278 281 284 287 289 293 298 302 303 305
240 242 244 246 247 248 250 252 253 255 256 257 259 260 262 263 265 266 267 268 269 270 271 271 272 274 275 278 281 282 282 280 278 280 282 284 288 293 298 300 302 304
241 243 245 246 248 249 250 252 254 255 256 258 260 261 262 263 265 266 267 268 268 268 269 269 270 271 272 274 277 278 278 278 277 277 279 283 288 293 296 298 300 302
240 243 244 246 248 249 250 252 253 255 256 258 259 261 263 264 265 266 267 267 268 268 268 268 268 268 267 267 268 270 271 274 275 275 277 284 290 293 294 296 298 300
238 241 243 245 247 249 251 252 254 255 256 258 259 261 263 264 265 266 267 268 268 268 269 269 268 268 267 264 263 264 268 272 274 275 278 284 289 291 291 294 296 298
237 240 243 245 248 250 251 252 253 254 256 258 259 261 262 263 264 266 267 267 268 269 269 270 269 269 268 267 265 264 266 269 272 275 278 281 285 288 290 292 294 296
236 239 242 245 248 250 251 252 253 254 255 257 258 259 261 263 264 265 267 268 269 270 271 271 270 270 269 269 269 268 268 269 270 273 275 277 281 285 288 289 293 296
235 238 242 245 247 248 250 252 253 254 254 256 258 260 261 263 265 266 267 268 269 270 270 271 271 270 270 270 270 270 270 270 271 272 274 275 278 283 285 288 293 297
234 238 241 244 246 248 250 252 253 254 255 257 259 261 262 263 265 266 267 268 269 270 270 271 271 271 271 271 271 270 271 271 272 273 274 275 277 280 284 289 293 298
233 237 240 243 246 249 251 253 254 255 257 259 260 261 262 263 264 266 267 269 270 272 272 272 272 272 271 271 270 270 270 270 271 272 273 275 277 281 286 290 294 299
232 236 240 243 246 249 251 252 254 256 257 259 260 260 261 263 265 267 269 271 273 274 274 272 271 270 270 269 269 268 268 269 270 271 272 275 278 284 288 290 295 302
233 236 239 242 245 247 249 252 254 256 257 259 260 261 262 264 265 267 270 273 275 274 272 270 269 269 268 267 267 266 267 267 268 270 273 277 282 286 288 291 297 303
233 236 238 241 243 244 247 252 254 256 258 260 261 262 263 264 266 268 271 273 273 272 271 269 267 266 265 264 264 265 265 266 268 270 275 281 285 287 289 294 299 303
232 235 237 239 241 244 248 252 255 257 260 262 263 263 264 265 267 270 271 270 271 272 271 267 264 263 263 263 264 263 264 265 267 273 280 285 288 289 291 296 300 302
231 234 236 239 241 245 250 254 258 261 263 264 263 263 264 266 268 268 268 268 270 271 269 264 261 261 262 263 262 262 263 265 268 277 287 291 290 290 294 298 300 302
231 233 236 240 244 248 253 258 262 265 266 264 264 263 264 266 267 267 267 267 268 268 266 262 260 260 260 260 260 261 261 263 270 283 293 293 291 292 296 298 299 301
231 234 237 242 245 250 256 261 265 267 266 264 263 263 265 266 267 268 268 267 265 263 261 259 259 258 258 258 261 263 262 264 273 287 293 292 290 293 296 297 298 300
Height
10709 10714 10717 10718 10721 10723 10724 10725 10728 10731 10734 10735 10736 10737 10737 10738 10739 10740 10740 10740 10740 10740 10740 10740 10740 10739 10739 10738 10737 10736 10735 10734 10732 10731 10730 10728 10726 10724 10722 10720 10717 10715
10705 10710 10713 10714 10717 10719 10719 10721 10724 10726 10729 10730 10731 10732 10733 10734 10734 10735 10736 10736 10736 10736 10736 10736 10736 10735 10734 10734 10733 10732 10731 10729 10728 10727 10725 10724 10722 10720 10718 10716 10713 10711
10701 10706 10708 10709 10713 10714 10715 10717 10719 10721 10724 10725 10727 10727 10728 10729 10730 10731 10732 10732 10732 10732 10732 10732 10731 10731 10730 10730 10729 10728 10727 10725 10724 10722 10721 10720 10718 10717 10715 10713 10710 10707
10697 10701 10703 10705 10708 10709 10710 10712 10713 10716 10718 10720 10722 10723 10723 10725 10726 10727 10728 10728 10728 10727 10728 10728 10727 10727 10726 10726 10726 10725 10724 10722 10720 10719 10717 10716 10715 10713 10711 10709 10706 10703
10693 10697 10699 10701 10703 10704 10706 10707 10709 10711 10713 10715 10717 10718 10719 10720 10721 10722 10723 10724 10723 10723 10723 10723 10723 10723 10722 10722 10721 10721 10720 10718 10717 10715 10713 10712 10711 10709 10707 10705 10702 10699
10688 10692 10693 10695 10697 10699 10701 10703 10704 10706 10709 10710 10712 10713 10714 10716 10716 10717 10718 10719 10718 10719 10719 10719 10719 10719 10718 10717 10717 10716 10716 10715 10713 10711 10710 10708 10707 10705 10703 10701 10699 10696
10683 10685 10687 10689 10692 10694 10696 10698 10699 10701 10704 10706 10707 10708 10709 10710 10711 10712 10713 10714 10714 10714 10715 10714 10714 10714 10714 10713 10712 10712 10712 10711 10709 10707 10706 10704 10703 10701 10700 10697 10695 10692
10677 10680 10681 10684 10687 10689 10690 10692 10694 10696 10699 10701 10703 10704 10704 10705 10706 10707 10708 10708 10709 10709 10710 10709 10709 10709 10709 10709 10708 10708 10708 10707 10705 10703 10702 10700 10699 10698 10696 10694 10691 10689
10672 10674 10676 10678 10681 10683 10685 10687 10689 10691 10694 10696 10698 10698 10699 10700 10701 10701 10702 10703 10704 10704 10705 10704 10704 10705 10704 10704 10704 10703 10703 10702 10701 10699 10698 10697 10695 10694 10692 10690 10687 10685
10667 10669 10670 10672 10675 10677 10679 10681 10683 10686 10689 10691 10692 10693 10693 10695 10696 10696 10697 10698 10698 10699 10699 10699 10699 10700 10700 10700 10699 10698 10698 10698 10696 10694 10694 10692 10691 10690 10688 10686 10683 10681
10661 10663 10664 10666 10668 10671 10674 10676 10678 10680 10683 10685 10686 10687 10688 10689 10690 10691 10692 10692 10692 10693 10693 10693 10694 10694 10695 10695 10694 10693 10693 10693 10691 10690 10689 10688 10686 10685 10684 10682 10680 10677
10656 10658 10659 10660 10663 10666 10669 10671 10673 10675 10678 10680 10680 10681 10682 10683 10684 10685 10685 10686 10686 10686 10687 10687 10688 10689 10690 10690 10690 10689 10689 10688 10687 10686 10684 10683 10682 10681 10680 10678 10676 10674
10651 10652 10653 10655 10658 10661 10664 10666 10668 10670 10673 10674 10674 10675 10676 10678 10679 10679 10679 10680 10680 10680 10680 10681 10682 10683 10684 10685 10684 10684 10683 10683 10682 10681 10680 10678 10677 10677 10676 10674 10672 10670
10645 10647 10649 10652 10655 10657 10659 10661 10663 10666 10667 10668 10669 10670 10671 10673 10673 10673 10674 10674 10674 10674 10675 10676 10676 10676 10677 10678 10678 10677 10677 10677 10676 10676 10675 10674 10673 10673 10672 10670 10669 10667
10641 10643 10646 10648 10651 10653 10655 10657 10659 10661 10663 10663 10664 10666 10667 10668 10668 10669 10669 10669 10669 10669 10670 10670 10670 10670 10670 10671 10671 10671 10671 10671 10670 10670 10670 10670 10669 10669 10668 10666 10665 10663
10638 10640 10642 10644 10647 10649 10650 10652 10655 10657 10658 10659 10660 10661 10662 10663 10663 10664 10664 10664 10664 10664 10664 10664 10664 10664 10664 10664 10665 10665 10665 10665 10665 10665 10665 10665 10665 10665 10664 10662 10661 10660
10634 10636 10638 10641 10643 10645 10646 10649 10651 10653 10654 10654 10656 10657 10658 10658 10659 10659 10659 10659 10659 10659 10659 10659 10659 10659 10659 10659 10659 10660 10660 10660 10660 10661 10661 10661 10661 10660 10659 10658 10657 10656
10630 10632 10634 10637 10639 10641 10643 10645 10647 10649 10649 10650 10651 10652 10653 10654 10654 10654 10654 10655 10655 10655 10655 10654 10654 10654 10654 10654 10654 10655 10655 10655 10656 10656 10656 10656 10656 10655 10655 10654 10653 10651
10626 10628 10631 10634 10636 10637 10640 10642 10643 10644 10645 10646 10647 10647 10648 10649 10649 10649 10650 10650 10650 10650 10650 10650 10649 10649 10649 10649 10650 10650 10651 10651 10651 10652 10652 10651 10651 10651 10650 10650 10648 10647
10622 10625 10628 10631 10633 10635 10637 10638 10639 10640 10641 10641 10642 10643 10644 10644 10645 10645 10646 10646 10645 10645 10645 10645 10644 10644 10645 10645 10646 10646 10647 10647 10647 10647 10647 10647 10647 10646 10646 10645 10644 10643
10619 10623 10626 10628 10630 10632 10634 10634 10635 10636 10637 10637 10638 10639 10639 10640 10641 10641 10641 10641 10641 10640 10640 10640 10640 10640 10641 10641 10642 10642 10643 10643 10643 10643 10643 10643 10643 10642 10642 10641 10640 10638
10617 10620 10623 10625 10628 10629 10630 10630 10631 10632 10633 10633 10634 10635 10636 10637 10637 10637 10637 10637 10636 10636 10636 10636 10636 10637 10637 10638 10638 10639 10639 10639 10639 10639 10639 10639 10638 10638 10637 10637 10635 10633
10615 10617 10620 10622 10624 10626 10626 10627 10628 10629 10630 10630 10631 10631 10632 10632 10632 10632 10633 10632 10632 10632 10632 10632 10632 10633 10633 10634 10635 10635 10635 10636 10636 10636 10635 10635 10634 10634 10633 10632 10630 10628
10612 10614 10616 10619 10621 10622 10623 10623 10624 10626 10627 10627 10627 10628 10629 10628 10628 10628 10628 10628 10629 10629 10629 10629 10629 10629 10630 10631 10631 10631 10632 10632 10632 10632 10631 10631 10630 10629 10628 10627 10625 10624
10608 10610 10613 10615 10617 10618 10619 10620 10621 10622 10623 10623 10624 10625 10625 10624 10624 10624 10624 10625 10625 10625 10625 10625 10625 10626 10627 10628 10628 10628 10628 10628 10628 10628 10627 10626 10625 10625 10624 10622 10621 10619
10604 10607 10609 10611 10612 10613 10614 10616 10617 10618 10619 10620 10621 10621 10621 10620 10620 10620 10621 10621 10622 10622 10622 10622 10622 10623 10623 10624 10624 10624 10624 10624 10624 10623 10623 10622 10621 10620 10619 10617 10616 10614